[[{"header":{"parameterUnit":"m.s-1","parameterCategory":1,"la1":30.2991,"la2":30.254,"lo1":-89.0895,"lo2":-89.0444,"dy":0.0017,"dx":0.0017,"nx":28,"ny":28,"refTime":"2024-08-29T09:00:00:Z","depth":0,"parameterNumber":2,"parameterNumberName":"U-component_of_WINDS"},"data":[0,0,0,0,0,0,0,0,0,0,0,0,0,0,0,0,0,0,0,0,0,0,0,0,0,0,0,0,0,0,0,0,0,0,0,0,0,0,0,0,0,0,0,0,0,0,0,0,0,0,0,0,0,0,0,0,0,0,-3.0942,-3.0943,0,-3.1035,-3.1036,-3.1037,-3.1004,-3.1002,-3.1,-3.0998,-3.1093,-3.1097,-3.1102,0,0,0,0,0,0,0,0,0,0,0,0,0,-3.0736,-3.074,-3.0942,-3.0943,-3.0944,-3.1035,-3.1036,-3.1037,-3.1004,-3.1002,-3.0999,-3.0997,-3.1091,-3.1097,-3.1102,0,0,0,0,0,0,0,0,0,0,0,0,0,-3.0827,-3.0741,-3.0942,-3.0939,-3.0939,-3.1034,-3.1036,-3.1038,-3.1005,-3.1002,-3.0998,-3.0996,-3.109,-3.1096,-3.1103,-3.1206,0,0,-3.1123,-3.1126,0,0,0,0,0,0,0,0,-3.0821,-3.0834,-3.0938,-3.0939,-3.094,-3.1005,-3.0998,-3.1094,-3.1005,-3.098,-3.0998,-3.0994,-3.1066,-3.1074,-3.1099,-3.1211,-3.1215,-3.1124,-3.1128,-3.1131,-3.1133,0,0,0,0,0,0,0,-3.0815,-3.083,-3.0979,-3.094,-3.0941,-3.0932,-3.0942,-3.1016,-3.1039,-3.0982,-3.098,-3.0991,-3.1066,-3.1092,-3.1101,-3.1216,-3.1124,-3.113,-3.1134,-3.1136,-3.1417,-3.142,0,0,0,0,0,0,-3.0808,-3.0825,-3.0976,-3.0981,-3.0872,-3.0939,-3.0949,-3.0987,-3.1038,-3.1043,-3.0994,-3.0989,-3.1082,-3.1093,-3.1104,-3.1228,-3.1131,-3.1137,-3.1141,-3.1413,-3.1417,-3.1421,0,0,0,0,0,0,-3.0804,-3.0822,-3.0972,-3.0903,-3.0921,-3.0946,-3.0988,-3.099,-3.1017,-3.1047,-3.1051,-3.1016,-3.108,-3.1094,-3.1181,-3.123,-3.114,-3.1146,-3.1409,-3.1415,-3.1419,-3.1476,0,0,0,0,0,0,-3.0798,-3.0821,-3.0861,-3.0904,-3.0925,-3.1048,-3.0991,-3.0995,-3.1028,-3.1023,-3.107,-3.1074,-3.1079,-3.1171,-3.1187,-3.1238,-3.1151,-3.1405,-3.1412,-3.1418,-3.147,-3.1483,-3.1494,0,0,0,0,0,-3.0791,-3.0873,-3.0863,-3.0881,-3.0975,-3.1051,-3.1063,-3.1066,-3.1033,-3.1073,-3.1092,-3.1073,-3.1222,-3.118,-3.1198,-3.1252,-3.1402,-3.141,-3.1417,-3.1465,-3.148,-3.1493,0,0,0,0,0,0,-3.0836,-3.0879,-3.0868,-3.0967,-3.1005,-3.1045,-3.1096,-3.1083,-3.1132,-3.1125,-3.1128,-3.1139,-3.1227,-3.1248,-3.12,-3.1354,-3.1307,-3.1319,-3.1337,-3.1352,-3.1363,-3.1356,-3.1157,0,0,0,0,0,-3.0857,-3.0915,-3.0949,-3.1033,-3.1053,-3.1071,-3.1104,-3.1104,-3.1144,-3.116,-3.1186,-3.1225,-3.1281,-3.1318,-3.1371,-3.1473,-3.1482,-3.1519,-3.1531,-3.154,-3.155,-3.1604,-3.1621,-3.1447,-3.1446,-3.1446,0,0,-3.0902,-3.0933,-3.0969,-3.1043,-3.1073,-3.1132,-3.1085,-3.115,-3.1194,-3.117,-3.1253,-3.1273,-3.1317,-3.1412,-3.1455,-3.1432,-3.16,-3.155,-3.1557,-3.1562,-3.1614,-3.163,-3.1645,-3.1452,-3.1451,-3.145,0,0,-3.1013,-3.1043,-3.1115,-3.1146,-3.1191,-3.1203,-3.122,-3.1262,-3.1274,-3.1358,-3.134,-3.1392,-3.1489,-3.1521,-3.1549,-3.1672,-3.1656,-3.1689,-3.1751,-3.1804,-3.1817,-3.183,-3.1872,-3.1888,-3.1699,-3.17,-3.17,0,-3.1063,-3.1152,-3.1154,-3.122,-3.1253,-3.1233,-3.1306,-3.1336,-3.1397,-3.142,-3.1393,-3.1513,-3.1542,-3.1643,-3.1673,-3.1697,-3.1716,-3.1684,-3.1815,-3.1827,-3.1839,-3.188,-3.1896,-3.1703,-3.1703,-3.1702,-3.1702,0,-3.121,-3.1272,-3.1325,-3.1384,-3.1422,-3.1492,-3.1504,-3.1543,-3.1539,-3.1553,-3.1637,-3.1671,-3.173,-3.1754,-3.1751,-3.1854,-3.1839,-3.1814,-3.1767,-3.1859,-3.1897,-3.1913,-3.1709,-3.1707,-3.1706,-3.1705,0,0,-3.1353,-3.1411,-3.1431,-3.1456,-3.1505,-3.1552,-3.1621,-3.1678,-3.1711,-3.1753,-3.181,-3.1891,-3.1869,-3.1901,-3.1902,-3.1948,-3.2042,-3.1918,-3.1919,-3.1939,-3.2157,-3.2174,-3.2193,-3.2032,-3.2035,-3.2037,-3.2153,0,-3.1468,-3.1587,-3.1591,-3.17,-3.1756,-3.1738,-3.1797,-3.1833,-3.1848,-3.1898,-3.1914,-3.1971,-3.1937,-3.1957,-3.2002,-3.2021,-3.2086,-3.2013,-3.2084,-3.2086,-3.2072,-3.2213,-3.2232,-3.2339,-3.2168,-3.217,-3.2172,0,-3.1618,-3.1664,-3.1779,-3.1818,-3.1842,-3.1895,-3.1947,-3.1995,-3.2035,-3.2042,-3.2079,-3.2072,-3.2141,-3.2092,-3.2186,-3.2137,-3.2166,-3.2179,-3.2184,-3.219,-3.2134,-3.2222,-3.2374,-3.239,-3.2196,-3.2194,-3.2192,0,-3.1709,-3.18,-3.188,-3.1903,-3.1951,-3.1988,-3.201,-3.2047,-3.2081,-3.2127,-3.2149,-3.2202,-3.2231,-3.2272,-3.228,-3.2243,-3.2374,-3.2326,-3.2382,-3.2382,-3.241,-3.2408,-3.2568,-3.243,-3.243,-3.2429,-3.2429,0,-3.1836,-3.1907,-3.1922,-3.1971,-3.2049,-3.2052,-3.2129,-3.2148,-3.2181,-3.2233,-3.2221,-3.227,-3.2277,-3.2328,-3.2335,-3.2411,-3.2425,-3.2432,-3.2433,-3.2433,-3.2432,-3.2452,-3.2444,-3.2434,-3.2433,-3.2432,-3.2431,0,-3.1952,-3.1965,-3.205,-3.2088,-3.2099,-3.2155,-3.2187,-3.2234,-3.2247,-3.2313,-3.2329,-3.2349,-3.2409,-3.242,-3.249,-3.2494,-3.2585,-3.2579,-3.2572,-3.2571,-3.2625,-3.262,-3.2803,-3.2827,-3.2675,-3.2676,-3.2677,0,-3.2032,-3.2086,-3.2129,-3.2163,-3.2186,-3.2241,-3.2275,-3.228,-3.2316,-3.2365,-3.2406,-3.2463,-3.251,-3.2605,-3.2626,-3.2679,-3.2673,-3.2734,-3.2681,-3.2679,-3.2673,-3.2669,-3.2674,-3.2744,-3.2745,-3.2747,-3.2748,0,-3.2173,-3.2176,-3.2226,-3.2277,-3.2318,-3.236,-3.2399,-3.2427,-3.2437,-3.2478,-3.2538,-3.2574,-3.2645,-3.2702,-3.2755,-3.2777,-3.2764,-3.2764,-3.278,-3.278,-3.2773,-3.2777,-3.2598,-3.276,-3.2759,-3.2758,-3.2757,-3.2757,-3.2272,-3.2319,-3.2356,-3.2411,-3.2441,-3.2477,-3.2523,-3.2541,-3.2591,-3.2649,-3.2649,-3.2714,-3.2751,-3.2821,-3.2846,-3.2897,-3.2878,-3.2901,-3.2907,-3.2912,-3.2916,-3.2766,-3.2907,-3.2907,-3.2906,-3.2906,-3.2906,0,-3.2412,-3.2434,-3.2485,-3.254,-3.2583,-3.2567,-3.2609,-3.2646,-3.2704,-3.274,-3.2785,-3.2853,-3.2908,-3.2933,-3.2987,-3.3023,-3.3019,-3.3037,-3.3034,-3.3039,-3.2931,-3.2912,-3.304,-3.304,-3.304,-3.304,-3.304,-3.304,-3.2489,-3.2566,-3.2574,-3.2665,-3.2687,-3.2751,-3.2776,-3.2809,-3.2838,-3.2914,-3.296,-3.2976,-3.3007,-3.3063,-3.3112,-3.3118,-3.3138,-3.316,-3.3163,-3.3061,-3.3047,-3.3034,-3.3016,-3.3164,-3.3164,-3.3267,-3.3268,-3.3268]},{"header":{"parameterUnit":"m.s-1","parameterCategory":1,"la1":30.2991,"la2":30.254,"lo1":-89.0895,"lo2":-89.0444,"dy":0.0017,"dx":0.0017,"nx":28,"ny":28,"refTime":"2024-08-29T09:00:00:Z","depth":0,"parameterNumber":3,"parameterNumberName":"V-component_of_WINDS"},"data":[0,0,0,0,0,0,0,0,0,0,0,0,0,0,0,0,0,0,0,0,0,0,0,0,0,0,0,0,0,0,0,0,0,0,0,0,0,0,0,0,0,0,0,0,0,0,0,0,0,0,0,0,0,0,0,0,0,0,3.5355,3.5355,0,3.5353,3.5353,3.5353,3.5264,3.5262,3.526,3.5257,3.5255,3.5257,3.5259,0,0,0,0,0,0,0,0,0,0,0,0,0,3.5281,3.5283,3.5355,3.5355,3.5355,3.5353,3.5353,3.5353,3.5265,3.5262,3.5259,3.5256,3.5255,3.5257,3.5259,0,0,0,0,0,0,0,0,0,0,0,0,0,3.53,3.5283,3.5355,3.5311,3.5307,3.5353,3.5353,3.5353,3.5265,3.5262,3.5258,3.5255,3.5254,3.5257,3.526,3.5348,0,0,3.5269,3.5271,0,0,0,0,0,0,0,0,3.5299,3.5302,3.5317,3.5314,3.5309,3.5305,3.5326,3.5351,3.5266,3.5281,3.5257,3.5253,3.5275,3.5276,3.5283,3.5348,3.5348,3.527,3.5272,3.5273,3.5274,0,0,0,0,0,0,0,3.5297,3.5302,3.5354,3.5317,3.5313,3.529,3.5289,3.533,3.5297,3.5279,3.5273,3.5274,3.5272,3.528,3.5282,3.5348,3.527,3.5272,3.5274,3.5275,3.5483,3.5487,0,0,0,0,0,0,3.5302,3.5301,3.5354,3.5354,3.5295,3.5295,3.5293,3.531,3.5296,3.5291,3.5277,3.527,3.5277,3.5279,3.5282,3.5382,3.5273,3.5276,3.5278,3.548,3.5484,3.5488,0,0,0,0,0,0,3.5301,3.5308,3.5354,3.5326,3.533,3.53,3.5319,3.5312,3.532,3.5295,3.5288,3.5292,3.5274,3.5277,3.5332,3.5381,3.5277,3.528,3.5476,3.5481,3.5486,3.5586,0,0,0,0,0,0,3.5299,3.5308,3.5341,3.5327,3.5332,3.5405,3.5322,3.5314,3.5326,3.5316,3.5307,3.5302,3.5272,3.5328,3.5335,3.5384,3.5282,3.5471,3.5478,3.5484,3.5578,3.5594,3.5608,0,0,0,0,0,3.5297,3.537,3.5344,3.535,3.5373,3.5408,3.541,3.5374,3.533,3.5363,3.5347,3.5302,3.5375,3.5334,3.5342,3.5392,3.5468,3.5476,3.5484,3.5571,3.5591,3.5607,0,0,0,0,0,0,3.5391,3.5367,3.5338,3.5408,3.5411,3.5393,3.5433,3.5396,3.5411,3.5402,3.5356,3.5355,3.5416,3.541,3.5364,3.5476,3.5413,3.5424,3.5477,3.5496,3.551,3.5509,3.5285,0,0,0,0,0,3.542,3.545,3.5428,3.5492,3.5495,3.5464,3.5478,3.545,3.545,3.5451,3.5438,3.544,3.5463,3.548,3.55,3.5577,3.5573,3.5616,3.5631,3.5643,3.5651,3.569,3.5708,3.5515,3.5515,3.5515,0,0,3.5479,3.547,3.5492,3.551,3.5509,3.554,3.5465,3.5502,3.5525,3.5456,3.5506,3.5497,3.5497,3.5563,3.5591,3.5559,3.5704,3.5653,3.5664,3.5665,3.5701,3.5719,3.5735,3.5521,3.552,3.5519,0,0,3.5603,3.5601,3.5653,3.5653,3.5651,3.5631,3.5644,3.5631,3.5622,3.5672,3.5621,3.5647,3.5689,3.569,3.5696,3.5821,3.578,3.5829,3.5906,3.5944,3.5959,3.5973,3.6015,3.6031,3.5838,3.5838,3.5838,0,3.5678,3.5723,3.5684,3.5724,3.5733,3.5673,3.5725,3.5727,3.5732,3.574,3.5704,3.5754,3.575,3.5814,3.5844,3.5852,3.5864,3.5828,3.5961,3.5973,3.5985,3.6025,3.6041,3.5844,3.5843,3.5843,3.5842,0,3.5813,3.5846,3.5888,3.5894,3.5909,3.5955,3.5922,3.5941,3.5912,3.5895,3.5946,3.5939,3.5955,3.5969,3.5942,3.603,3.601,3.5969,3.5904,3.601,3.6047,3.6062,3.5852,3.585,3.5849,3.5847,0,0,3.5995,3.5979,3.5995,3.5997,3.5991,3.6015,3.6058,3.6074,3.609,3.6097,3.6131,3.6167,3.6129,3.6136,3.6108,3.6142,3.6239,3.6096,3.6095,3.6121,3.6333,3.6363,3.6381,3.6213,3.6216,3.6218,3.6333,0,3.6113,3.6185,3.6152,3.6227,3.6256,3.6199,3.6236,3.6237,3.6222,3.6244,3.6228,3.6254,3.6202,3.6205,3.6237,3.6221,3.6281,3.6212,3.6242,3.6244,3.6242,3.6401,3.6432,3.654,3.6347,3.6349,3.6351,0,3.6261,3.6272,3.6351,3.6338,3.6349,3.6383,3.6395,3.6417,3.6416,3.6403,3.6411,3.6375,3.6416,3.6355,3.6409,3.6363,3.6374,3.6368,3.6372,3.6371,3.6302,3.6402,3.6574,3.659,3.6374,3.6372,3.637,0,3.6382,3.6418,3.6469,3.6472,3.646,3.6485,3.6481,3.6476,3.6488,3.6499,3.6505,3.6521,3.6529,3.6542,3.6511,3.647,3.657,3.6506,3.6559,3.656,3.658,3.6579,3.6754,3.6592,3.6592,3.6591,3.6591,0,3.6516,3.6566,3.6523,3.6554,3.6608,3.6569,3.6623,3.6613,3.6609,3.6637,3.659,3.6617,3.6576,3.6599,3.6576,3.6623,3.6628,3.6618,3.661,3.6621,3.6622,3.6625,3.6616,3.6595,3.6595,3.6594,3.6593,0,3.666,3.6634,3.6685,3.6669,3.6666,3.6706,3.6692,3.672,3.6703,3.6739,3.6745,3.6717,3.6742,3.6713,3.6735,3.6719,3.6784,3.6767,3.6784,3.6778,3.6831,3.6826,3.7013,3.7035,3.6861,3.6863,3.6864,0,3.6747,3.6783,3.6771,3.6786,3.6785,3.681,3.6821,3.6785,3.6799,3.68,3.6828,3.6848,3.6862,3.6904,3.6886,3.6903,3.6884,3.6949,3.6886,3.6895,3.6882,3.688,3.6882,3.6961,3.6963,3.6965,3.6966,0,3.6902,3.6886,3.6905,3.6918,3.6933,3.6942,3.6948,3.6963,3.6925,3.6943,3.6967,3.6978,3.7001,3.7021,3.7033,3.7028,3.6991,3.6986,3.6999,3.7008,3.7016,3.701,3.6816,3.6981,3.698,3.6979,3.6978,3.6977,3.7017,3.7047,3.7042,3.7064,3.7064,3.707,3.7095,3.7081,3.71,3.7115,3.7093,3.7123,3.712,3.7132,3.7132,3.7155,3.7127,3.7146,3.715,3.7155,3.7162,3.7014,3.7157,3.7157,3.7156,3.7156,3.7156,0,3.7168,3.7162,3.7183,3.7191,3.7208,3.7172,3.7176,3.7193,3.7219,3.722,3.7235,3.7263,3.7282,3.7266,3.7282,3.7304,3.7287,3.7309,3.7306,3.7305,3.7187,3.7173,3.7322,3.7322,3.7322,3.7322,3.7322,3.7322,3.7248,3.7295,3.7279,3.7326,3.732,3.7348,3.7353,3.7359,3.7359,3.7391,3.7407,3.7397,3.7391,3.7406,3.7422,3.7417,3.7424,3.7452,3.7441,3.733,3.7314,3.7298,3.7285,3.7455,3.7455,3.7557,3.7558,3.7558]}]]